Tracking 31027 objects as of 19-Jul-2025
HD Live streaming from Space Station
objects crossing your sky now

H-2A R/B

Track H-2A R/B now!
10-day predictions


NORAD ID: 43682
Int'l Code: 2018-084L
Perigee: 456.7 km
Apogee: 501.2 km
Inclination: 98.9 °
Period: 94.0 minutes
Semi major axis: 6849 km
RCS: Unknown
Launch date: October 29, 2018
Source: Japan (JPN)
Launch site: TANEGASHIMA SPACE CENTER (TNSTA)

Note: This is a ROCKET BODY
Your satellite tracking list
NUSAT-20 (GRACE)
Track 1 satellite(s)




NASA's NSSDC Master Catalog

Two Line Element Set (TLE):
1 43682U 18084L   25199.40170273  .00011826  00000-0  38766-3 0  9995
2 43682  98.8795   3.8066 0032489 110.3741 250.0991 15.31333059369813
Source of the keplerian elements: AFSPC